Showing default

GEESAT 2-10, 58914

Orbit data source: Space-Track

GEESAT 2-10, 58914 is a payload satellite owned by GeeSpace (CN) in LEO that was launched on Fri, 02 Feb 2024 UTC via a CHANG ZHENG 2C launch vehicle from the Xichang Space Center, China (XSC). Payload-class satellites include a variety of spacecraft equipped with specific instruments for various scientific and technological missions. These include communications satellites like Starlink; space stations such as the ISS; scientific satellites like the Hubble; Earth observation satellites from companies like Planet Labs, Umbra, and HawkEye 360; GPS; miniature CubeSats for education and research; and military/defense satellites.

Loading next visibility...
Identifier
58914, 2024-023K
Orbit
LEO
Country
Flag of CNCN / PRC
Related business
Manufacturer
GWCG
Mission
Operational Commercial Navigation
Bus & Motor
GPS100, Unknown motor
Mass
130 kg wet, 130 kg dry
Launch date (UTC)
2024-02-02 (2 years ago)
Launch vehicle
CHANG ZHENG 2C
Launch site
Xichang Space Center, China (XSC)
Object type
Payload
Rocket body
Debris
Shape & HBR
Box + 2 Pan, 1.0 m
Radar Cross Section
0.833 m², Medium (>0.1 m² and < 1m²)

Expand to show TLE details & history
Last TLE update: 7 hours ago

TLE from 7 hours ago
0 GEESAT 2-10
1 58914U 24023K   25304.29207492  .00004166  00000-0  45227-3 0  9997
2 58914  49.9952 334.3456 0007921 280.0614  79.9433 14.89925726 94938
Epoch: 2025-10-31T07:00Z
TLE epoch observation values (Epoch: 2025-10-31T07:00:35.273Z)
Latitude
-0°
Longitude
-170.63998°
Altitude
597.752 km
Speed
7.563 km/s
True Right ascension
22h 17m 22s
True Declination
0° 00' 00"
Sunlit
Object was in full shadow at epoch
Visualization orbit readout
Latitude
Unknown
Longitude
Unknown
Altitude
Unknown
Speed
Unknown
Apparent Right ascension
Unknown
Apparent Declination
Unknown
Sunlit
N/A
Visualization observer readout
Local Sidereal Time
09:32:49
Azimuth
Unknown
Elevation
Unknown
Doppler factor
Unknown
Orbital elements
Apogee altitude
604.455 km
Perigee altitude
593.402 km
Semi-major axis
6,977.066 km
Eccentricity
0.00079
Inclination
49.9952°
RAAN
334.3456°
Arg. of periapsis
280.0614°
True anomaly
80.03269°
Mean anomaly
79.9433°
Eccentric anomaly
79.98799°
Mean motion
3.72421 °/min
Orbital period
96.66 mins
BSTAR
0.00045227
Loading maneuver chart data...
Computing Atmospheric mass density...
Loading historical data...
Loading historical data...
Loading historical data...
Loading historical data...
Loading historical data...
Loading historical data...
Loading historical data...

Documentation

Showing up to 5 results
|